Simultaneous Nadir Overpasses (SNOs) Predictions

Prediction of SNOs between NOAA-20 and METOP-B Satellite Orbit:

Table of predicted SNOs for the next 14.0 days since TLE Epoch: 1/12/2018
Index Date (NOAA-20) Time (NOAA-20) Lat,Lon (NOAA-20) SZA (NOAA-20 ) Date (METOP-B) Time (METOP-B) Lat,Lon (METOP-B) SZA (METOP-B ) Distance(km) Time Diff (sec)
1 01/12/2018 23:47:09 -72.73, -4.89 85.59 01/12/2018 23:46:42 -72.75, -4.80 85.57 3.39 27
2 01/13/2018 00:37:55 72.74, 162.41 94.41 01/13/2018 00:37:22 72.71, 162.46 94.39 3.28 33
3 01/13/2018 01:28:39 -72.74, -30.28 85.60 01/13/2018 01:28:04 -72.73, -30.19 85.60 3.15 35
4 01/13/2018 02:19:24 72.69, 137.13 94.35 01/13/2018 02:18:44 72.69, 137.07 94.36 1.80 40
5 01/13/2018 03:10:08 -72.69, -55.56 85.66 01/13/2018 03:09:26 -72.71, -55.57 85.64 1.69 42
6 01/13/2018 04:00:54 72.70, 111.74 94.35 01/13/2018 04:00:05 72.72, 111.79 94.38 3.15 49
7 01/13/2018 04:51:38 -72.70, -80.94 85.67 01/13/2018 04:50:48 -72.69, -80.95 85.67 1.32 50
8 01/13/2018 05:42:24 72.70, 86.36 94.34 01/13/2018 05:41:27 72.70, 86.41 94.35 1.79 57
9 01/13/2018 06:33:08 -72.70,-106.33 85.67 01/13/2018 06:32:09 -72.72,-106.23 85.65 3.44 59
10 01/13/2018 07:23:53 72.66, 61.08 94.28 01/13/2018 07:22:49 72.68, 61.03 94.32 2.96 64
11 01/13/2018 08:14:38 -72.71,-131.71 85.68 01/13/2018 08:13:31 -72.70,-131.61 85.68 3.45 67
12 01/13/2018 09:05:23 72.66, 35.69 94.27 01/13/2018 09:04:11 72.66, 35.64 94.29 1.64 72
13 01/13/2018 09:56:07 -72.66,-156.99 85.74 01/13/2018 09:54:53 -72.68,-157.00 85.71 1.37 74
14 01/13/2018 10:46:49 72.46, 10.72 94.04 01/13/2018 10:45:36 72.48, 9.95 94.12 25.81 73
15 01/13/2018 11:37:32 -72.41, 178.14 86.02 01/13/2018 11:36:20 -72.40, 177.11 85.97 34.60 72
16 01/13/2018 12:28:12 72.16, -14.06 93.71 01/13/2018 12:27:03 72.16, -16.03 93.82 67.12 69
17 01/13/2018 13:18:55 -72.11, 153.35 86.36 01/13/2018 13:17:46 -72.12, 151.23 86.22 72.36 69




NCC Satellite Simultaneous Nadir Overpasses (SNOs) Prediction Service
